Back to catalog

STARLINK-32785

AliveCommunicationsVLEO
NORAD 62531·PAYLOAD·🇺🇸 United States

Launched Jan 8, 2025 from Cape Canaveral Space Force Station

Loading…

Next Passes (next 24 hours)

TLE

FreshSource: CelesTrak SupGP

Epoch: Sep 14, 2026, 13:49 UTC

1 62531C 25004W   26257.57618056 -.00023721  00000+0 -85952-3 0  2573
2 62531  43.0006 233.3543 0001239 269.0261  99.2092 15.27577546    17

Track STARLINK-32785 in real time with AllMySat

Download on the App Store